Location: *
(49.4547°N, 7.9131°E)
Time: 11:14:29
(UTC+00:00)

Spot 2 Rocket - Pass Details

Date: 22 September 2019
Orbit: 758 x 772 km, 98.6° (Epoch: 19 October)

Event Time Altitude Azimuth Distance (km) Brightness Sun altitude
Exits shadow 19:34:39 43° 91° (E) 1,068 3.8 -20.8°
Maximum altitude 19:35:21 45° 67° (ENE) 1,025 3.8 -20.9°
Drops below altitude 10° 19:40:10 10° 356° (N) 2,300 6.4 -21.6°
Sets 19:42:32 0° 350° (N) 3,230 7.3 -21.9°
